This demonstration page uses our WeatherBlox Daily Observations layout. Learn more.

Left ArrowRight Arrow

40.97296, -117.73568

Hourly Observations for May 23, 2023

Temp ( °F °C ) Dew Point ( °F °C ) Humidity (%) Winds ( mph kmh ) Pressure ( in mb ) Visibility ( mi km ) Precip ( " mm )
12:56 am 00:56 Mostly Cloudy 58 14.4 32 0 37 37 N 3 6 29.85 1011 10 16 0.00 0.00
1:56 am 01:56 Mostly Cloudy 57 13.9 31 -0.6 37 37 VRB 6 9 29.84 1011 10 16 0.00 0.00
2:56 am 02:56 Mostly Clear 52 11.1 31 -0.6 44 44 VRB 3 6 29.84 1011 10 16 0.00 0.00
3:56 am 03:56 Mostly Clear 52 11.1 31 -0.6 44 44 E 5 7 29.84 1011 10 16 0.00 0.00
4:56 am 04:56 Clear 47 8.3 31 -0.6 53 53 W 5 7 29.85 1011 10 16 0.00 0.00
5:56 am 05:56 Sunny 46 7.8 32 0 58 58 NNW 3 6 29.86 1011 10 16 0.00 0.00
6:56 am 06:56 Sunny 50 10 35 1.7 56 56 Calm 29.84 1011 10 16 0.00 0.00
7:56 am 07:56 Sunny 57 13.9 37 2.8 47 47 SSE 5 7 29.85 1011 10 16 0.00 0.00
8:56 am 08:56 Sunny 62 16.7 34 1.1 35 35 VRB 3 6 29.84 1011 10 16 0.00 0.00
9:56 am 09:56 Sunny 68 20 34 1.1 28 28 E 3 6 29.82 1010 10 16 0.00 0.00
10:56 am 10:56 Sunny 71 21.7 34 1.1 25 25 VRB 3 6 29.80 1009 10 16 0.00 0.00
11:56 am 11:56 Mostly Sunny 73 22.8 36 2.2 26 26 N 6 9 29.80 1009 10 16 0.00 0.00
12:56 pm 12:56 Sunny 75 23.9 37 2.8 25 25 WNW 6 9 29.78 1008 10 16 0.00 0.00
1:56 pm 13:56 Sunny 79 26.1 35 1.7 20 20 undefined N/A 29.74 1007 10 16 0.00 0.00
2:56 pm 14:56 Sunny 80 26.7 36 2.2 20 20 NNW 12 19 29.73 1007 10 16 0.00 0.00
3:56 pm 15:56 Mostly Cloudy 78 25.6 35 1.7 21 21 NW 14 22 29.73 1007 10 16 0.00 0.00
4:56 pm 16:56 Sunny 76 24.4 35 1.7 23 23 NNW 8 13 29.72 1007 10 16 0.00 0.00
5:56 pm 17:56 Sunny 77 25 34 1.1 21 21 NNE 10 17 29.72 1006 10 16 0.00 0.00
6:56 pm 18:56 Mostly Cloudy 74 23.3 34 1.1 23 23 NNE 8 13 29.72 1007 10 16 0.00 0.00
7:56 pm 19:56 Cloudy with Light Rain 66 18.9 41 5 40 40 SW 21 33 29.77 1008 8 13 0.01 0.13
8:07 pm 20:07 Cloudy with Light Rain 67 19.4 38 3.3 34 34 Calm 29.67 1005 10 16 0.01 0.13
8:56 pm 20:56 Cloudy 62 16.7 42 5.6 48 48 NW 13 20 29.81 1010 10 16 0.01 0.13
9:56 pm 21:56 Cloudy with Light Rain 60 15.6 42 5.6 51 51 NW 13 20 29.83 1010 10 16 0.01 0.13
10:56 pm 22:56 Partly Cloudy 60 15.6 44 6.7 55 55 NNE 10 17 29.82 1010 10 16 0.01 0.13
11:56 pm 23:56 Cloudy 59 15 44 6.7 58 58 NNE 7 11 29.82 1010 10 16 0.00 0.00

Powered by Vaisala Xweather